TimeCST,TemperatureF,Dew PointF,Humidity,Sea Level PressureIn,VisibilityMPH,Wind Direction,Wind SpeedMPH,Gust SpeedMPH,PrecipitationIn,Events,Conditions,WindDirDegrees,DateUTC
12:53 AM,54.0,39.9,59,30.16,10.0,Calm,Calm,-,N/A,,Clear,0,2013-03-09 06:53:00
1:53 AM,53.1,43.0,69,30.14,10.0,ESE,4.6,-,N/A,,Clear,120,2013-03-09 07:53:00
3:53 AM,55.0,39.9,57,30.15,10.0,SSW,3.5,-,N/A,,Clear,200,2013-03-09 09:53:00
4:53 AM,52.0,42.1,69,30.15,10.0,SE,4.6,-,N/A,,Clear,130,2013-03-09 10:53:00
5:53 AM,52.0,44.1,74,30.15,9.0,East,5.8,-,N/A,,Clear,100,2013-03-09 11:53:00
6:53 AM,51.1,44.1,77,30.18,7.0,Calm,Calm,-,N/A,,Clear,0,2013-03-09 12:53:00
7:53 AM,54.0,44.1,69,30.18,8.0,ESE,5.8,-,N/A,,Clear,110,2013-03-09 13:53:00
8:53 AM,55.9,43.0,62,30.19,8.0,SE,5.8,-,N/A,,Clear,130,2013-03-09 14:53:00
9:53 AM,59.0,42.1,53,30.18,9.0,SSE,8.1,-,N/A,,Clear,150,2013-03-09 15:53:00
10:53 AM,61.0,48.0,62,30.15,10.0,SSE,8.1,-,N/A,,Clear,160,2013-03-09 16:53:00
11:53 AM,64.0,51.1,63,30.12,10.0,SSE,10.4,-,N/A,,Clear,150,2013-03-09 17:53:00
12:53 PM,66.9,52.0,59,30.09,10.0,SSE,11.5,-,N/A,,Clear,150,2013-03-09 18:53:00
1:53 PM,73.9,52.0,46,30.04,10.0,South,10.4,-,N/A,,Clear,170,2013-03-09 19:53:00
2:53 PM,73.0,48.9,42,30.01,10.0,South,21.9,27.6,N/A,,Clear,170,2013-03-09 20:53:00
3:53 PM,73.9,52.0,46,30.00,10.0,SSE,17.3,25.3,N/A,,Clear,160,2013-03-09 21:53:00
4:53 PM,72.0,54.0,53,29.98,10.0,SSE,19.6,26.5,N/A,,Clear,150,2013-03-09 22:53:00
5:53 PM,69.1,54.0,58,29.98,10.0,SSE,17.3,24.2,N/A,,Clear,150,2013-03-09 23:53:00
6:53 PM,69.1,55.0,61,30.00,10.0,South,13.8,21.9,N/A,,Mostly Cloudy,170,2013-03-10 00:53:00
7:53 PM,66.9,55.0,66,29.97,10.0,SSE,13.8,-,N/A,,Overcast,160,2013-03-10 01:53:00
8:53 PM,66.0,55.0,68,29.97,10.0,SSE,17.3,27.6,N/A,,Overcast,160,2013-03-10 02:53:00
9:53 PM,64.0,55.0,73,29.97,10.0,SSE,11.5,-,N/A,,Scattered Clouds,150,2013-03-10 03:53:00
10:53 PM,64.0,55.0,73,29.99,10.0,South,8.1,-,N/A,,Mostly Cloudy,170,2013-03-10 04:53:00
11:27 PM,62.6,55.4,77,29.97,10.0,SSE,9.2,-,N/A,,Overcast,160,2013-03-10 05:27:00
11:53 PM,63.0,55.0,75,29.99,10.0,SSE,9.2,-,N/A,,Overcast,160,2013-03-10 05:53:00